Regional Weather Roundup
Issued by NWS

Home | Current Version | Previous Version | Text Only | Print | Product List | Glossary Off
Versions: 1 2 3 4 5 6 7 8 9 10 11 12 13 14 15 16 17 18 19 20 21 22 23 24 25 26 27 28 29 30 31 32 33 34 35 36 37 38 39 40 41 42 43 44 45 46 47 48 49 50

000
ASUS45 KPSR 160910
RWRAZ

ARIZONA HOURLY REGIONAL WEATHER ROUNDUP
NATIONAL WEATHER SERVICE PHOENIX AZ
200 AM MST WED AUG 16 2017

NOTE: FAIR INDICATES FEW OR NO CLOUDS BELOW 12,000 FEET WITH NO
SIGNIFICANT WEATHER AND/OR OBSTRUCTIONS TO VISIBILITY.

AZZ001>003-036-161000-
NORTHWEST ARIZONA

CITY           SKY/WX    TMP DP  RH WIND       PRES   REMARKS
BULLHEAD CITY  CLEAR     84  39  20 SE5       29.73S
KINGMAN        CLEAR     65  37  35 E8        29.93S
$$

AZZ004>008-015-016-018-161000-
NORTH CENTRAL ARIZONA

CITY           SKY/WX    TMP DP  RH WIND       PRES   REMARKS
GRAND CANYON   CLEAR     39  28  64 CALM      30.18S
WILLIAMS       CLEAR     46  32  57 S10       30.17F
PRESCOTT       CLEAR     59  32  36 S10       30.07S
FLAGSTAFF      CLEAR     43  37  79 CALM      30.20S
PAGE           CLEAR     69  26  20 SW3       29.99R
$$

AZZ009>014-017-161000-
NORTHEAST ARIZONA

CITY           SKY/WX    TMP DP  RH WIND       PRES   REMARKS
WINSLOW        CLEAR     58  43  57 CALM      30.08R
SAINT JOHNS    CLEAR     59  46  62 CALM      30.12S
WINDOW ROCK    CLEAR     49  35  58 CALM      30.19S
SHOW LOW       PTCLDY    57  43  58 S6        30.18S
$$

AZZ540-542>544-546-548-161000-
GREATER PHOENIX AREA

CITY           SKY/WX    TMP DP  RH WIND       PRES   REMARKS
PHOENIX        CLEAR     87  31  13 N3        29.79S
BUCKEYE        CLEAR     77  32  19 E5        29.81R
LUKE AFB       CLEAR     82  36  19 CALM      29.79S
DEER VALLEY    CLEAR     76  32  20 N3        29.82R
SCOTTSDALE     CLEAR     79  43  27 W6        29.84R
MESA-GATEWAY   CLEAR     77  43  29 SE6       29.84R
$$

AZZ539-553-161000-
SOUTHWEST MARICOPA COUNTY AND PINAL COUNTY

CITY           SKY/WX    TMP DP  RH WIND       PRES   REMARKS
CASA GRANDE    NOT AVBL
GILA BEND      FAIR      79  41  26 SE6       29.78S
$$

AZZ503-504-507>509-161000-
SOUTHEAST ARIZONA

CITY           SKY/WX    TMP DP  RH WIND       PRES   REMARKS
TUCSON         CLEAR     75  45  33 SE6       29.97R
DAVIS-MONTHAN  CLEAR     74  44  34 SE8       29.96R
NOGALES        CLEAR     64  46  52 CALM      30.06S
SIERRA VISTA   CLEAR     70  40  33 N5        30.10S
DOUGLAS        CLEAR     67  61  81 S7        30.06F
SAFFORD        CLEAR     78  45  30 N8        29.94S
$$

AZZ532-161000-
SOUTHWEST ARIZONA

CITY           SKY/WX    TMP DP  RH WIND       PRES   REMARKS
YUMA           NOT AVBL
$$

CAZ041-043-047-048-061-525>527-560>570-161000-
SOUTHERN CALIFORNIA

CITY           SKY/WX    TMP DP  RH WIND       PRES   REMARKS
DOWNTOWN L.A.  CLOUDY    69  60  73 VRB3      29.92S
L.A. AIRPORT   CLOUDY    67  60  78 SW5       29.93S
SAN DIEGO      MOCLDY    67  57  70 E5        29.95F
BURBANK        CLOUDY    66  57  72 VRB5      29.93S
ONTARIO        MOCLDY    63  57  81 W8        29.94S
RIVERSIDE      CLOUDY    62  58  86 W5        29.94S
PALM SPRINGS   CLEAR     77  53  43 CALM      29.75S
EL CENTRO NAS  CLEAR     82  35  18 W28       29.75S
IMPERIAL       CLEAR     81  41  24 W16       29.72F
BLYTHE         CLEAR     80  44  27 S13       29.73S
NEEDLES        CLEAR     86  36  16 CALM      29.75R
$$

NVZ020-UTZ003-161000-
SOUTHERN NEVADA-UTAH

CITY           SKY/WX    TMP DP  RH WIND       PRES   REMARKS
LAS VEGAS      CLEAR     83  37  19 CALM      29.81S
SALT LAKE CITY CLEAR     63  37  38 E7        29.99S
$$

NMZ009-TXZ055-161000-
NEW MEXICO-WEST TEXAS

CITY           SKY/WX    TMP DP  RH WIND       PRES   REMARKS
ALBUQUERQUE    PTCLDY    67  37  33 NW7       30.09R
EL PASO        PTCLDY    76  60  57 E3        29.98F
$$


........................KEY........................
SKY/WX - SKY CONDITION/WEATHER
TMP    - TEMPERATURE IN FAHRENHEIT
DP     - DEW POINT IN FAHRENHEIT
RH     - RELATIVE HUMIDITY IN PERCENT
WIND   - DIRECTION AND SPEED IN MILES PER HOUR (MPH)
VRB    - VARIABLE WIND DIRECTION
PRES   - MEAN SEA LEVEL PRESSURE IN INCHES OF MERCURY
         F - FALLING PRESSURE   R - RISING PRESSURE
         S - STEADY PRESSURE
VSB    - VISIBILITY IN MILES
HX     - HEAT INDEX IN FAHRENHEIT
WCI    - WIND CHILL INDEX IN FAHRENHEIT
TC     - TEMPERATURE IN CELSIUS WHICH IS ALSO KNOWN AS
         TEMPERATURE IN CENTIGRADE
AFB    - AIR FORCE BASE
         LUKE AFB IS LUKE AIR FORCE BASE
         DAVIS-MONTHAN IS DAVIS-MONTHAN AIR FORCE BASE
NAS    - NAVAL AIR STATION
         EL CENTRO NAS IS EL CENTRO NAVAL AIR STATION
N/A    - NOT AVAILABLE




USA.gov is the U.S. government's official web portal to all federal, state and local government web resources and services.